Madison, MN

8:05 AM CST on December 15, 2019 (GMT -0600)
Madison-Lac Qui Parle County

Weather History for KDXX - August, 2019

Change the Weather History Date:

Thursday, August 8, 2019

  Actual Average (KAQP) Record (KAQP)
Temperature  
Mean Temperature 66 °F -  
Max Temperature 80 °F 77 °F 95 °F (2001)
Min Temperature 53 °F 55 °F 35 °F (2003)
Cooling Degree Days 2    
Growing Degree Days 16 (Base 50)    
Moisture  
Dew Point 53 °F    
Average Humidity 64    
Maximum Humidity 100    
Minimum Humidity 30    
Precipitation  
Precipitation 0.00 in - - ()
Sea Level Pressure  
Sea Level Pressure 29.98 in    
Wind  
Wind Speed 6 mph (NW)    
Max Wind Speed 16 mph    
Max Gust Speed 20 mph    
Visibility 10 miles    
Events      
Averages and records for this station are not official NWS values.
T = Trace of Precipitation, MM = Missing Value Source: NWS Daily Summary

Daily Weather History Graph

Daily Weather History Graph

Search for Another Location

Airport or City:

Astronomy

Aug. 08, 2019 Rise Set
Actual Time 6:17 AM CDT 8:41 PM CDT
Civil Twilight 5:45 AM CDT 9:14 PM CDT
Nautical Twilight 5:04 AM CDT 9:55 PM CDT
Astronomical Twilight 4:17 AM CDT 10:41 PM CDT
Moon 3:19 PM CDT (8/8) 12:42 AM CDT (8/8)
Length of Visible Light 15h 29m
Length of Day
14h 23m
First Quarter, 60% of the Moon is Illuminated
Aug 8
First Quarter
Aug 15
Full
Aug 23
Last Quarter
Aug 30
New
Sep 5
First Quarter

Hourly Weather History & Observations

Time (CDT) Temp. Dew Point Humidity Pressure Visibility Wind Dir Wind Speed Gust Speed Precip Events Conditions
12:15 AM 64.4 °F 57.2 °F 77% 29.95 in 10.0 mi NW 4.6 mph - N/A   Clear
12:35 AM 64.4 °F 57.2 °F 77% 29.95 in 10.0 mi NW 5.8 mph - N/A   Clear
12:36 AM 64.4 °F 57.2 °F 77% 29.95 in 10.0 mi NW 5.8 mph - N/A   Clear
12:55 AM 62.6 °F 57.2 °F 82% 29.96 in 10.0 mi NW 5.8 mph - N/A   Clear
1:18 AM 60.8 °F 55.4 °F 82% 29.96 in 10.0 mi West 4.6 mph - N/A   Clear
1:37 AM 60.8 °F 57.2 °F 88% 29.97 in 10.0 mi WNW 4.6 mph - N/A   Clear
1:56 AM 60.8 °F 57.2 °F 88% 29.97 in 10.0 mi WNW 4.6 mph - N/A   Clear
2:15 AM 59.0 °F 55.4 °F 88% 29.96 in 10.0 mi WNW 3.5 mph - N/A   Clear
2:16 AM 59.0 °F 55.4 °F 88% 29.96 in 10.0 mi Calm Calm - N/A   Clear
2:35 AM 57.2 °F 55.4 °F 94% 29.96 in 10.0 mi West 4.6 mph - N/A   Clear
2:57 AM 57.2 °F 55.4 °F 94% 29.96 in 10.0 mi West 4.6 mph - N/A   Clear
3:16 AM 57.2 °F 55.4 °F 94% 29.96 in 10.0 mi West 5.8 mph - N/A   Clear
3:35 AM 57.2 °F 55.4 °F 94% 29.96 in 10.0 mi WNW 4.6 mph - N/A   Clear
3:36 AM 57.2 °F 55.4 °F 94% 29.96 in 10.0 mi WNW 4.6 mph - N/A   Clear
3:55 AM 57.2 °F 55.4 °F 94% 29.96 in 10.0 mi WNW 4.6 mph - N/A   Clear
3:56 AM 57.2 °F 55.4 °F 94% 29.95 in 10.0 mi WNW 4.6 mph - N/A   Clear
4:19 AM 55.4 °F 55.4 °F 100% 29.95 in 10.0 mi WNW 3.5 mph - N/A   Clear
4:36 AM 55.4 °F 53.6 °F 94% 29.96 in 10.0 mi West 4.6 mph - N/A   Clear
4:55 AM 53.6 °F 53.6 °F 100% 29.96 in 10.0 mi West 5.8 mph - N/A   Clear
4:56 AM 53.6 °F 53.6 °F 100% 29.96 in 10.0 mi West 5.8 mph - N/A   Clear
5:15 AM 55.4 °F 53.6 °F 94% 29.96 in 10.0 mi West 4.6 mph - N/A   Clear
5:16 AM 55.4 °F 53.6 °F 94% 29.96 in 10.0 mi WNW 4.6 mph - N/A   Clear
5:35 AM 55.4 °F 53.6 °F 94% 29.96 in 10.0 mi WNW 5.8 mph - N/A   Clear
5:39 AM 55.4 °F 53.6 °F 94% 29.96 in 10.0 mi NW 5.8 mph - N/A   Clear
5:58 AM 55.4 °F 53.6 °F 94% 29.97 in 10.0 mi WNW 4.6 mph - N/A   Clear
6:15 AM 53.6 °F 51.8 °F 94% 29.97 in 10.0 mi Calm Calm - N/A   Clear
6:35 AM 53.6 °F 51.8 °F 94% 29.98 in 10.0 mi West 3.5 mph - N/A   Clear
6:36 AM 53.6 °F 51.8 °F 94% 29.98 in 10.0 mi West 3.5 mph - N/A   Clear
6:56 AM 55.4 °F 53.6 °F 94% 29.98 in 10.0 mi WSW 3.5 mph - N/A   Clear
7:18 AM 57.2 °F 53.6 °F 88% 29.98 in 10.0 mi West 3.5 mph - N/A   Clear
7:37 AM 57.2 °F 55.4 °F 94% 29.98 in 10.0 mi West 3.5 mph - N/A   Clear
7:56 AM 60.8 °F 55.4 °F 82% 29.99 in 10.0 mi West 4.6 mph - N/A   Clear
8:15 AM 60.8 °F 55.4 °F 82% 29.99 in 10.0 mi West 4.6 mph - N/A   Clear
8:16 AM 60.8 °F 55.4 °F 82% 29.99 in 10.0 mi West 4.6 mph - N/A   Clear
8:35 AM 64.4 °F 55.4 °F 73% 29.99 in 10.0 mi WNW 3.5 mph - N/A   Clear
8:57 AM 66.2 °F 55.4 °F 68% 29.99 in 10.0 mi WNW 5.8 mph - N/A   Clear
9:16 AM 66.2 °F 55.4 °F 68% 30.00 in 10.0 mi WNW 4.6 mph - N/A   Clear
9:35 AM 68.0 °F 55.4 °F 64% 30.00 in 10.0 mi NW 6.9 mph - N/A   Clear
9:36 AM 69.8 °F 55.4 °F 60% 30.00 in 10.0 mi NW 6.9 mph - N/A   Clear
9:55 AM 69.8 °F 55.4 °F 60% 30.00 in 10.0 mi WNW 5.8 mph - N/A   Clear
9:56 AM 69.8 °F 55.4 °F 60% 30.00 in 10.0 mi NW 5.8 mph - N/A   Clear
10:19 AM 71.6 °F 55.4 °F 57% 30.00 in 10.0 mi West 5.8 mph - N/A   Clear
10:36 AM 73.4 °F 51.8 °F 47% 30.00 in 10.0 mi NW 5.8 mph - N/A   Clear
10:56 AM 73.4 °F 51.8 °F 47% 30.00 in 10.0 mi West 6.9 mph - N/A   Clear
11:15 AM 75.2 °F 51.8 °F 44% 30.00 in 10.0 mi West 9.2 mph - N/A   Clear
11:38 AM 75.2 °F 48.2 °F 38% 30.01 in 10.0 mi WNW 8.1 mph - N/A   Clear
11:56 AM 77.0 °F 46.4 °F 34% 30.01 in 7.0 mi WNW 9.2 mph - N/A   Clear
12:16 PM 77.0 °F 44.6 °F 32% 30.00 in 10.0 mi WNW 12.7 mph 18.4 mph N/A   Clear
12:35 PM 78.8 °F 44.6 °F 30% 29.99 in 10.0 mi NW 10.4 mph 17.3 mph N/A   Clear
12:55 PM 78.8 °F 46.4 °F 32% 30.00 in 10.0 mi West 8.1 mph 11.5 mph N/A   Clear
12:59 PM 78.8 °F 44.6 °F 30% 30.00 in 10.0 mi WNW 6.9 mph 11.5 mph N/A   Clear
1:17 PM 78.8 °F 46.4 °F 32% 30.00 in 10.0 mi WNW 10.4 mph - N/A   Clear
1:36 PM 78.8 °F 46.4 °F 32% 30.00 in 10.0 mi NNW 8.1 mph - N/A   Clear
1:55 PM 78.8 °F 46.4 °F 32% 29.99 in 10.0 mi WNW 12.7 mph 17.3 mph N/A   Clear
1:56 PM 78.8 °F 46.4 °F 32% 29.99 in 10.0 mi WNW 12.7 mph 17.3 mph N/A   Clear
2:15 PM 78.8 °F 46.4 °F 32% 29.99 in 10.0 mi NNW 12.7 mph - N/A   Clear
2:37 PM 80.6 °F 46.4 °F 30% 29.99 in 10.0 mi NW 12.7 mph 18.4 mph N/A   Clear
2:55 PM 80.6 °F 46.4 °F 30% 29.99 in 10.0 mi WNW 11.5 mph 16.1 mph N/A   Clear
3:15 PM 80.6 °F 46.4 °F 30% 29.98 in 10.0 mi NW 10.4 mph - N/A   Clear
3:35 PM 80.6 °F 46.4 °F 30% 29.98 in 10.0 mi NW 13.8 mph 19.6 mph N/A   Clear
3:36 PM 80.6 °F 46.4 °F 30% 29.98 in 10.0 mi NW 16.1 mph 19.6 mph N/A   Clear
3:59 PM 78.8 °F 46.4 °F 32% 29.98 in 10.0 mi NW 12.7 mph - N/A   Clear
4:16 PM 80.6 °F 48.2 °F 32% 29.98 in 10.0 mi NNW 11.5 mph 18.4 mph N/A   Clear
4:36 PM 78.8 °F 46.4 °F 32% 29.97 in 10.0 mi NNW 10.4 mph 16.1 mph N/A   Clear
4:55 PM 78.8 °F 48.2 °F 34% 29.97 in 10.0 mi NNW 11.5 mph - N/A   Clear
4:56 PM 78.8 °F 48.2 °F 34% 29.97 in 10.0 mi NNW 11.5 mph - N/A   Clear
5:15 PM 78.8 °F 50.0 °F 36% 29.96 in 10.0 mi NNW 15.0 mph - N/A   Clear
5:19 PM 78.8 °F 50.0 °F 36% 29.96 in 10.0 mi NNW 12.7 mph - N/A   Clear
5:37 PM 78.8 °F 51.8 °F 39% 29.96 in 10.0 mi NNW 10.4 mph 17.3 mph N/A   Clear
5:56 PM 78.8 °F 51.8 °F 39% 29.96 in 10.0 mi NNW 9.2 mph - N/A   Clear
6:15 PM 78.8 °F 51.8 °F 39% 29.95 in 10.0 mi NNW 9.2 mph - N/A   Clear
6:16 PM 78.8 °F 51.8 °F 39% 29.95 in 10.0 mi NNW 9.2 mph - N/A   Clear
6:35 PM 78.8 °F 51.8 °F 39% 29.96 in 10.0 mi North 10.4 mph - N/A   Clear
6:36 PM 77.0 °F 51.8 °F 41% 29.95 in 7.0 mi North 11.5 mph - N/A   Clear
6:58 PM 77.0 °F 51.8 °F 41% 29.96 in 10.0 mi NNW 10.4 mph - N/A   Clear
7:16 PM 75.2 °F 53.6 °F 47% 29.96 in 10.0 mi NNW 8.1 mph - N/A   Clear
7:35 PM 75.2 °F 53.6 °F 47% 29.96 in 10.0 mi North 6.9 mph - N/A   Clear
7:36 PM 75.2 °F 53.6 °F 47% 29.96 in 10.0 mi North 6.9 mph - N/A   Clear
7:55 PM 73.4 °F 53.6 °F 50% 29.96 in 10.0 mi North 5.8 mph - N/A   Clear
7:56 PM 73.4 °F 53.6 °F 50% 29.96 in 10.0 mi North 5.8 mph - N/A   Clear
8:15 PM 71.6 °F 55.4 °F 57% 29.97 in 10.0 mi North 3.5 mph - N/A   Clear
8:19 PM 69.8 °F 55.4 °F 60% 29.97 in 10.0 mi North 3.5 mph - N/A   Clear
8:37 PM 69.8 °F 55.4 °F 60% 29.97 in 10.0 mi North 4.6 mph - N/A   Clear
8:55 PM 68.0 °F 55.4 °F 64% 29.98 in 10.0 mi North 3.5 mph - N/A   Clear
9:15 PM 66.2 °F 55.4 °F 68% 29.99 in 10.0 mi North 3.5 mph - N/A   Clear
9:16 PM 66.2 °F 55.4 °F 68% 29.99 in 10.0 mi North 3.5 mph - N/A   Clear
9:35 PM 66.2 °F 55.4 °F 68% 29.99 in 10.0 mi Calm Calm - N/A   Clear
9:36 PM 66.2 °F 55.4 °F 68% 30.00 in 10.0 mi Calm Calm - N/A   Clear
9:58 PM 66.2 °F 55.4 °F 68% 30.00 in 10.0 mi Calm Calm - N/A   Clear
10:17 PM 62.6 °F 55.4 °F 77% 30.00 in 10.0 mi Calm Calm - N/A   Clear
10:44 PM 62.6 °F 55.4 °F 77% 30.01 in 10.0 mi Calm Calm - N/A   Clear
10:55 PM 62.6 °F 55.4 °F 77% 30.01 in 10.0 mi Calm Calm - N/A   Clear
10:56 PM 62.6 °F 55.4 °F 77% 30.00 in 10.0 mi Calm Calm - N/A   Clear
11:18 PM 60.8 °F 55.4 °F 82% 30.01 in 10.0 mi Calm Calm - N/A   Clear
11:36 PM 60.8 °F 55.4 °F 82% 30.01 in 10.0 mi West 3.5 mph - N/A   Clear
11:55 PM 60.8 °F 55.4 °F 82% 30.01 in 10.0 mi Calm Calm - N/A   Clear
11:56 PM 59.0 °F 55.4 °F 88% 30.01 in 10.0 mi Calm Calm - N/A   Clear